マクノート彗星

C/2011 N2 ( McNaught )

English version
Home page
Updated on December 15, 2011

---------------------------------------------------------------------

・ プロフィール

発見日 2011年7月4日
発見光度 17.9等
発見者 Robert H. McNaught (Siding Spring)

・ 写真集

・ 軌道要素

Epoch 2011 Oct. 6.0 TT = JDT 2455840.5
T 2011 Oct. 18.74530 TT                                 MPC
q   2.5633209            (2000.0)            P               Q
z  +0.0001902      Peri.  357.04235     +0.02715796     +0.83265282
 +/-0.0000388      Node   274.01886     -0.90538727     -0.21405454
e   0.9995124      Incl.   33.67577     -0.42371727     +0.51075428
From 46 observations 2011 July 4-Sept. 13, mean residual 0".4.

・ 光度変化

        m1 = 11.5 + 5 logΔ + 10.0 log r

---------------------------------------------------------------------

軌道要素はM.P.E.C. 2011-S56に掲載されたものです。
光度グラフはComet for Windowsで作成したものです。

---------------------------------------------------------------------

Copyright(C) Seiichi Yoshida (comet@aerith.net). All rights reserved.